Location: Unspecified
(0.0000°N, 0.0000°E)
Time: 16:18:23
(UTC+00:00)

Transit 4A - Pass Details

Date: 19 November 2019
Orbit: 870 x 975 km, 66.8° (Epoch: 13 December)

Event Time Altitude Azimuth Distance (km) Brightness Sun altitude
Rises 09:01:29 0° 320° (NW) 3,442 10.5 45.4°
Reaches altitude 10° 09:04:13 10° 310° (NW) 2,507 9.9 46.0°
Maximum altitude 09:09:12 30° 250° (WSW) 1,508 9.1 47.1°
Drops below altitude 10° 09:14:16 10° 190° (S) 2,539 10.5 48.2°
Sets 09:17:04 0° 179° (S) 3,493 11.2 48.8°
